Livingston, MT

10:46 PM MST on December 17, 2017 (GMT -0700)
Mission

Weather History for KLVM - August, 2013

Change the Weather History Date:

Sunday, August 4, 2013

  Actual Average Record
Temperature  
Mean Temperature 71 °F 68 °F  
Max Temperature 90 °F 87 °F 100 °F (1961)
Min Temperature 51 °F 49 °F 40 °F (1982)
Degree Days  
Heating Degree Days 0 1  
Month to date heating degree days 4  
Since 1 June heating degree days 261  
Since 1 July heating degree days 54  
Cooling Degree Days 6 4  
Month to date cooling degree days 22 16  
Year to date cooling degree days 258 145  
Since 1 June cooling degree days 250 144  
Growing Degree Days 22 (Base 50)    
Moisture  
Dew Point 46 °F    
Average Humidity 50    
Maximum Humidity 86    
Minimum Humidity 13    
Precipitation  
Precipitation 0.00 in 0.04 in 0.44 in (1949)
Month to date precipitation 0.07 0.15  
Year to date precipitation 7.19 10.27  
Sea Level Pressure  
Sea Level Pressure 29.96 in    
Wind  
Wind Speed 11 mph (North)    
Max Wind Speed 24 mph    
Max Gust Speed 29 mph    
Visibility 10 miles    
Events      
T = Trace of Precipitation, MM = Missing Value Source: NWS Daily Summary

Daily Weather History Graph

Daily Weather History Graph

Search for Another Location

Airport or City:

Trip Planner

Search our weather history database for the weather conditions in past years. The results will help you decide how hot, cold, wet, or windy it might be!

Date:

Astronomy

Aug. 04, 2013 Rise Set
Actual Time 6:09 AM MDT 8:45 PM MDT
Civil Twilight 5:35 AM MDT 9:19 PM MDT
Nautical Twilight 4:52 AM MDT 10:02 PM MDT
Astronomical Twilight 4:03 AM MDT 10:50 PM MDT
Moon 4:12 AM MDT (8/4) 7:11 PM MDT (8/4)
Length of Visible Light 15h 44m
Length of Day
14h 36m
Waning Crescent, 4% of the Moon is Illuminated
Aug 4
Waning Crescent
Aug 6
New
Aug 14
First Quarter
Aug 20
Full
Aug 28
Last Quarter

Hourly Weather History & Observations

Time (MDT) Temp. Dew Point Humidity Pressure Visibility Wind Dir Wind Speed Gust Speed Precip Events Conditions
12:53 AM 64.0 °F 51.1 °F 63% 30.01 in 10.0 mi East 13.8 mph - N/A   Overcast
1:53 AM 63.0 °F 52.0 °F 67% 30.01 in 10.0 mi East 13.8 mph - N/A   Overcast
2:53 AM 62.1 °F 53.1 °F 72% 30.01 in 10.0 mi East 10.4 mph - N/A   Mostly Cloudy
3:53 AM 60.1 °F 52.0 °F 75% 30.02 in 10.0 mi East 8.1 mph - N/A   Clear
4:53 AM 57.9 °F 51.1 °F 78% 30.01 in 10.0 mi SE 6.9 mph - N/A   Clear
5:53 AM 53.1 °F 48.9 °F 86% 30.03 in 10.0 mi SW 3.5 mph - N/A   Clear
6:53 AM 55.0 °F 51.1 °F 86% 30.03 in 10.0 mi WNW 6.9 mph - N/A   Clear
7:53 AM 60.1 °F 52.0 °F 75% 30.03 in 10.0 mi NNW 9.2 mph - N/A   Clear
8:53 AM 66.9 °F 52.0 °F 59% 30.03 in 10.0 mi West 11.5 mph - N/A   Clear
9:53 AM 71.1 °F 52.0 °F 51% 30.01 in 10.0 mi West 8.1 mph - N/A   Clear
10:53 AM 73.9 °F 51.1 °F 45% 29.99 in 10.0 mi Variable 6.9 mph - N/A   Clear
11:53 AM 78.1 °F 51.1 °F 39% 29.97 in 10.0 mi Variable 3.5 mph - N/A   Clear
12:53 PM 82.0 °F 46.9 °F 29% 29.94 in 10.0 mi NW 8.1 mph - N/A   Clear
1:53 PM 84.9 °F 43.0 °F 23% 29.92 in 10.0 mi NNW 13.8 mph 23.0 mph N/A   Clear
2:53 PM 89.1 °F 32.0 °F 13% 29.90 in 10.0 mi WNW 16.1 mph 28.8 mph N/A   Partly Cloudy
3:53 PM 90.0 °F 32.0 °F 13% 29.88 in 10.0 mi West 20.7 mph 27.6 mph N/A   Clear
4:53 PM 84.9 °F 33.1 °F 16% 29.88 in 10.0 mi WNW 15.0 mph 20.7 mph N/A   Clear
5:53 PM 87.1 °F 32.0 °F 14% 29.88 in 10.0 mi NW 12.7 mph 21.9 mph N/A   Clear
6:53 PM 86.0 °F 33.1 °F 15% 29.88 in 10.0 mi NNW 8.1 mph - N/A   Clear
7:53 PM 80.1 °F 42.1 °F 26% 29.91 in 10.0 mi ENE 16.1 mph - N/A   Clear
8:53 PM 75.0 °F 44.1 °F 33% 29.93 in 10.0 mi East 13.8 mph - N/A   Clear
9:53 PM 72.0 °F 46.0 °F 40% 29.95 in 10.0 mi ESE 12.7 mph - N/A   Clear
10:53 PM 70.0 °F 46.0 °F 42% 29.96 in 10.0 mi ESE 13.8 mph - N/A   Clear
11:53 PM 66.9 °F 48.0 °F 51% 29.96 in 10.0 mi ESE 11.5 mph - N/A   Clear